Time,TemperatureF,DewpointF,PressureIn,WindDirection,WindDirectionDegrees,WindSpeedMPH,WindSpeedGustMPH,Humidity,HourlyPrecipIn,Conditions,Clouds,dailyrainin,SoftwareType,DateUTC
2013-07-18 00:02:00,79.7,71.1,30.21,SSE,151,0.0,0.0,75,0.00,,SKC,0.00,VWS V13.01,2013-07-18 05:02:00,
2013-07-18 00:07:00,79.5,70.9,30.21,SSE,152,0.0,0.0,75,0.00,,SKC,0.00,VWS V13.01,2013-07-18 05:07:00,
2013-07-18 00:12:00,79.4,70.8,30.21,South,178,0.0,0.0,75,0.00,,SKC,0.00,VWS V13.01,2013-07-18 05:12:00,
2013-07-18 00:17:00,79.3,71.1,30.21,South,171,0.0,1.0,76,0.00,,SKC,0.00,VWS V13.01,2013-07-18 05:17:00,
2013-07-18 00:22:00,79.2,71.0,30.21,South,174,0.0,0.0,76,0.00,,SKC,0.00,VWS V13.01,2013-07-18 05:22:00,
2013-07-18 00:27:00,79.1,70.9,30.21,SSE,159,0.0,0.0,76,0.00,,SKC,0.00,VWS V13.01,2013-07-18 05:27:00,
2013-07-18 00:32:00,79.0,70.8,30.21,SSE,154,0.0,0.0,76,0.00,,SKC,0.00,VWS V13.01,2013-07-18 05:32:00,
2013-07-18 00:37:00,78.9,70.7,30.21,SSE,166,0.0,0.0,76,0.00,,SKC,0.00,VWS V13.01,2013-07-18 05:37:00,
2013-07-18 00:42:00,78.8,70.6,30.21,SSE,166,0.0,0.0,76,0.00,,SKC,0.00,VWS V13.01,2013-07-18 05:42:00,
2013-07-18 00:47:00,78.7,70.5,30.21,SSE,158,0.0,0.0,76,0.00,,SKC,0.00,VWS V13.01,2013-07-18 05:47:00,
2013-07-18 00:52:00,78.6,70.4,30.21,SE,135,0.0,0.0,76,0.00,,SKC,0.00,VWS V13.01,2013-07-18 05:52:00,
2013-07-18 00:57:00,78.5,70.7,30.21,SE,135,0.0,0.0,77,0.00,,SKC,0.00,VWS V13.01,2013-07-18 05:57:00,
2013-07-18 01:02:00,78.4,70.6,30.20,SSE,159,0.0,0.0,77,0.00,,SKC,0.00,VWS V13.01,2013-07-18 06:02:00,
2013-07-18 01:07:00,78.4,70.6,30.21,SSE,161,0.0,0.0,77,0.00,,SKC,0.00,VWS V13.01,2013-07-18 06:07:00,
2013-07-18 01:12:00,78.3,70.5,30.21,SSE,161,0.0,0.0,77,0.00,,SKC,0.00,VWS V13.01,2013-07-18 06:12:00,
2013-07-18 01:17:00,78.2,70.4,30.21,SSE,161,0.0,0.0,77,0.00,,SKC,0.00,VWS V13.01,2013-07-18 06:17:00,
2013-07-18 01:22:00,78.2,70.4,30.21,SSE,161,0.0,0.0,77,0.00,,SKC,0.00,VWS V13.01,2013-07-18 06:22:00,
2013-07-18 01:27:00,78.0,70.2,30.20,SSE,161,0.0,0.0,77,0.00,,SKC,0.00,VWS V13.01,2013-07-18 06:27:00,
2013-07-18 01:32:00,78.0,70.2,30.20,SSE,161,0.0,0.0,77,0.00,,SKC,0.00,VWS V13.01,2013-07-18 06:32:00,
2013-07-18 01:37:00,77.9,70.1,30.20,SSE,161,0.0,0.0,77,0.00,,SKC,0.00,VWS V13.01,2013-07-18 06:37:00,
2013-07-18 01:42:00,77.8,70.4,30.20,SSE,161,0.0,0.0,78,0.00,,SKC,0.00,VWS V13.01,2013-07-18 06:42:00,
2013-07-18 01:47:00,77.8,70.4,30.20,SSE,161,0.0,0.0,78,0.00,,SKC,0.00,VWS V13.01,2013-07-18 06:47:00,
2013-07-18 01:52:00,77.7,70.3,30.20,SSE,161,0.0,0.0,78,0.00,,SKC,0.00,VWS V13.01,2013-07-18 06:52:00,
2013-07-18 01:57:00,77.7,70.3,30.20,SSE,161,0.0,0.0,78,0.00,,SKC,0.00,VWS V13.01,2013-07-18 06:57:00,
2013-07-18 02:02:00,77.6,70.2,30.20,SSE,161,0.0,0.0,78,0.00,,SKC,0.00,VWS V13.01,2013-07-18 07:02:00,
2013-07-18 02:07:00,77.6,70.2,30.20,SSE,161,0.0,0.0,78,0.00,,SKC,0.00,VWS V13.01,2013-07-18 07:07:00,
2013-07-18 02:12:00,77.6,70.6,30.20,SSE,161,0.0,0.0,79,0.00,,SKC,0.00,VWS V13.01,2013-07-18 07:12:00,
2013-07-18 02:17:00,77.5,70.5,30.20,SSE,161,0.0,0.0,79,0.00,,SKC,0.00,VWS V13.01,2013-07-18 07:17:00,
2013-07-18 02:22:00,77.5,70.5,30.20,SSE,161,0.0,0.0,79,0.00,,SKC,0.00,VWS V13.01,2013-07-18 07:22:00,
2013-07-18 02:27:00,77.4,70.4,30.20,SSE,161,0.0,0.0,79,0.00,,SKC,0.00,VWS V13.01,2013-07-18 07:27:00,
2013-07-18 02:32:00,77.3,70.3,30.20,SSE,161,0.0,0.0,79,0.00,,SKC,0.00,VWS V13.01,2013-07-18 07:32:00,
2013-07-18 02:37:00,77.3,70.3,30.20,SSE,161,0.0,0.0,79,0.00,,SKC,0.00,VWS V13.01,2013-07-18 07:37:00,
2013-07-18 02:42:00,77.2,70.2,30.20,SSE,161,0.0,0.0,79,0.00,,SKC,0.00,VWS V13.01,2013-07-18 07:42:00,
2013-07-18 02:47:00,77.1,70.1,30.20,SSE,161,0.0,0.0,79,0.00,,SKC,0.00,VWS V13.01,2013-07-18 07:47:00,
2013-07-18 02:52:00,77.0,70.4,30.19,SSE,161,0.0,0.0,80,0.00,,SKC,0.00,VWS V13.01,2013-07-18 07:52:00,
2013-07-18 02:57:00,76.9,70.3,30.19,SSE,161,0.0,0.0,80,0.00,,SKC,0.00,VWS V13.01,2013-07-18 07:57:00,
2013-07-18 03:03:00,76.8,70.2,30.20,SSE,161,0.0,0.0,80,0.00,,SKC,0.00,VWS V13.01,2013-07-18 08:03:00,
2013-07-18 03:08:00,76.7,70.1,30.20,SSE,161,0.0,0.0,80,0.00,,SKC,0.00,VWS V13.01,2013-07-18 08:08:00,
2013-07-18 03:13:00,76.6,70.0,30.20,SSE,161,0.0,0.0,80,0.00,,SKC,0.00,VWS V13.01,2013-07-18 08:13:00,
2013-07-18 03:18:00,76.5,69.9,30.20,SSE,161,0.0,0.0,80,0.00,,SKC,0.00,VWS V13.01,2013-07-18 08:18:00,
2013-07-18 03:23:00,76.5,69.9,30.20,SSE,161,0.0,0.0,80,0.00,,SKC,0.00,VWS V13.01,2013-07-18 08:23:00,
2013-07-18 03:28:00,76.4,69.8,30.20,SSE,162,0.0,0.0,80,0.00,,SKC,0.00,VWS V13.01,2013-07-18 08:28:00,
2013-07-18 03:33:00,76.3,70.1,30.20,SSE,162,0.0,0.0,81,0.00,,SKC,0.00,VWS V13.01,2013-07-18 08:33:00,
2013-07-18 03:38:00,76.2,69.9,30.19,SSE,162,0.0,0.0,81,0.00,,SKC,0.00,VWS V13.01,2013-07-18 08:38:00,
2013-07-18 03:43:00,76.1,69.8,30.19,SSE,162,0.0,0.0,81,0.00,,SKC,0.00,VWS V13.01,2013-07-18 08:43:00,
2013-07-18 03:48:00,76.0,69.8,30.20,SSE,164,0.0,0.0,81,0.00,,SKC,0.00,VWS V13.01,2013-07-18 08:48:00,
2013-07-18 03:53:00,76.0,69.8,30.19,SSE,164,0.0,0.0,81,0.00,,SKC,0.00,VWS V13.01,2013-07-18 08:53:00,
2013-07-18 03:58:00,75.9,69.7,30.19,SSE,164,0.0,0.0,81,0.00,,SKC,0.00,VWS V13.01,2013-07-18 08:58:00,
2013-07-18 04:03:00,75.8,69.6,30.19,SSE,164,0.0,0.0,81,0.00,,SKC,0.00,VWS V13.01,2013-07-18 09:03:00,
2013-07-18 04:08:00,75.8,69.6,30.19,SSE,164,0.0,0.0,81,0.00,,SKC,0.00,VWS V13.01,2013-07-18 09:08:00,
2013-07-18 04:13:00,75.8,69.6,30.19,SSE,164,0.0,0.0,81,0.00,,SKC,0.00,VWS V13.01,2013-07-18 09:13:00,
2013-07-18 04:18:00,75.6,69.4,30.19,SSE,164,0.0,0.0,81,0.00,,SKC,0.00,VWS V13.01,2013-07-18 09:18:00,
2013-07-18 04:23:00,75.5,69.6,30.19,South,176,0.0,0.0,82,0.00,,SKC,0.00,VWS V13.01,2013-07-18 09:23:00,
2013-07-18 04:28:00,75.4,69.5,30.18,South,176,0.0,0.0,82,0.00,,SKC,0.00,VWS V13.01,2013-07-18 09:28:00,
2013-07-18 04:33:00,75.3,69.4,30.18,South,176,0.0,0.0,82,0.00,,SKC,0.00,VWS V13.01,2013-07-18 09:33:00,
2013-07-18 04:38:00,75.2,69.3,30.18,South,190,0.0,0.0,82,0.00,,SKC,0.00,VWS V13.01,2013-07-18 09:38:00,
2013-07-18 04:43:00,75.2,69.3,30.18,South,190,0.0,0.0,82,0.00,,SKC,0.00,VWS V13.01,2013-07-18 09:43:00,
2013-07-18 04:48:00,75.1,69.2,30.18,South,190,0.0,0.0,82,0.00,,SKC,0.00,VWS V13.01,2013-07-18 09:48:00,
2013-07-18 04:53:00,75.1,69.2,30.18,South,190,0.0,0.0,82,0.00,,SKC,0.00,VWS V13.01,2013-07-18 09:53:00,
2013-07-18 04:58:00,74.9,69.0,30.18,South,190,0.0,0.0,82,0.00,,SKC,0.00,VWS V13.01,2013-07-18 09:58:00,
2013-07-18 05:03:00,74.8,68.9,30.18,South,190,0.0,1.0,82,0.00,,SKC,0.00,VWS V13.01,2013-07-18 10:03:00,
2013-07-18 05:08:00,74.8,68.9,30.18,South,190,0.0,0.0,82,0.00,,SKC,0.00,VWS V13.01,2013-07-18 10:08:00,
2013-07-18 05:13:00,74.6,69.1,30.18,SSW,199,0.0,0.0,83,0.00,,SKC,0.00,VWS V13.01,2013-07-18 10:13:00,
2013-07-18 05:18:00,74.5,69.0,30.18,SSW,199,0.0,0.0,83,0.00,,SKC,0.00,VWS V13.01,2013-07-18 10:18:00,
2013-07-18 05:23:00,74.4,68.9,30.18,SSW,199,0.0,0.0,83,0.00,,SKC,0.00,VWS V13.01,2013-07-18 10:23:00,
2013-07-18 05:28:00,74.4,68.9,30.18,SSW,199,0.0,0.0,83,0.00,,SKC,0.00,VWS V13.01,2013-07-18 10:28:00,
2013-07-18 05:33:00,74.3,68.8,30.18,SSW,199,0.0,0.0,83,0.00,,SKC,0.00,VWS V13.01,2013-07-18 10:33:00,
2013-07-18 05:38:00,74.2,68.7,30.18,SSW,199,0.0,0.0,83,0.00,,SKC,0.00,VWS V13.01,2013-07-18 10:38:00,
2013-07-18 05:43:00,74.2,68.7,30.18,SSW,199,0.0,0.0,83,0.00,,SKC,0.00,VWS V13.01,2013-07-18 10:43:00,
2013-07-18 05:48:00,74.0,68.5,30.18,SSW,199,0.0,0.0,83,0.00,,SKC,0.00,VWS V13.01,2013-07-18 10:48:00,
2013-07-18 05:53:00,73.9,68.8,30.18,SSW,199,0.0,0.0,84,0.00,,SKC,0.00,VWS V13.01,2013-07-18 10:53:00,
2013-07-18 05:58:00,73.8,68.7,30.17,SSW,199,0.0,0.0,84,0.00,,SKC,0.00,VWS V13.01,2013-07-18 10:58:00,
2013-07-18 06:03:00,73.8,68.7,30.18,SSW,199,0.0,0.0,84,0.00,,SKC,0.00,VWS V13.01,2013-07-18 11:03:00,
2013-07-18 06:08:00,73.7,68.2,30.18,SSW,199,0.0,0.0,83,0.00,,SKC,0.00,VWS V13.01,2013-07-18 11:08:00,
2013-07-18 06:13:00,73.6,68.5,30.17,SSW,199,0.0,0.0,84,0.00,,SKC,0.00,VWS V13.01,2013-07-18 11:13:00,
2013-07-18 06:18:00,73.5,68.4,30.18,SSW,199,0.0,0.0,84,0.00,,SKC,0.00,VWS V13.01,2013-07-18 11:18:00,
2013-07-18 06:23:00,73.4,68.3,30.18,SSW,199,0.0,0.0,84,0.00,,SKC,0.00,VWS V13.01,2013-07-18 11:23:00,
2013-07-18 06:28:00,73.3,68.2,30.18,SSW,199,0.0,0.0,84,0.00,,SKC,0.00,VWS V13.01,2013-07-18 11:28:00,
2013-07-18 06:33:00,73.2,68.4,30.18,SSW,199,0.0,0.0,85,0.00,,SKC,0.00,VWS V13.01,2013-07-18 11:33:00,
2013-07-18 06:39:00,73.1,68.3,30.18,SSW,199,0.0,0.0,85,0.00,,SKC,0.00,VWS V13.01,2013-07-18 11:39:00,
2013-07-18 06:44:00,73.1,68.3,30.18,SSW,199,0.0,0.0,85,0.00,,SKC,0.00,VWS V13.01,2013-07-18 11:44:00,
2013-07-18 06:49:00,73.1,68.3,30.18,SSW,199,0.0,0.0,85,0.00,,SKC,0.00,VWS V13.01,2013-07-18 11:49:00,
2013-07-18 06:54:00,73.2,68.4,30.18,SSW,199,0.0,0.0,85,0.00,,SKC,0.00,VWS V13.01,2013-07-18 11:54:00,
2013-07-18 06:59:00,73.2,68.4,30.18,SSW,199,0.0,0.0,85,0.00,,SKC,0.00,VWS V13.01,2013-07-18 11:59:00,
2013-07-18 07:04:00,73.3,68.5,30.17,SSW,199,0.0,0.0,85,0.00,,SKC,0.00,VWS V13.01,2013-07-18 12:04:00,
2013-07-18 07:09:00,73.4,68.6,30.17,SSW,199,0.0,0.0,85,0.00,,SKC,0.00,VWS V13.01,2013-07-18 12:09:00,
2013-07-18 07:14:00,73.5,68.7,30.17,SSW,199,0.0,0.0,85,0.00,,SKC,0.00,VWS V13.01,2013-07-18 12:14:00,
2013-07-18 07:19:00,73.7,68.6,30.17,SSW,199,0.0,2.0,84,0.00,,SKC,0.00,VWS V13.01,2013-07-18 12:19:00,
2013-07-18 07:24:00,73.9,68.8,30.17,SSW,199,0.0,0.0,84,0.00,,SKC,0.00,VWS V13.01,2013-07-18 12:24:00,
2013-07-18 07:29:00,74.1,69.0,30.17,SSW,199,0.0,0.0,84,0.00,,SKC,0.00,VWS V13.01,2013-07-18 12:29:00,
2013-07-18 07:34:00,74.4,68.9,30.17,SSW,199,0.0,0.0,83,0.00,,SKC,0.00,VWS V13.01,2013-07-18 12:34:00,
2013-07-18 07:39:00,74.8,69.3,30.17,SSW,199,0.0,2.0,83,0.00,,SKC,0.00,VWS V13.01,2013-07-18 12:39:00,
2013-07-18 07:44:00,75.2,69.3,30.17,SSW,199,0.0,0.0,82,0.00,,SKC,0.00,VWS V13.01,2013-07-18 12:44:00,
2013-07-18 07:49:00,75.5,69.3,30.17,SSW,199,0.0,0.0,81,0.00,,SKC,0.00,VWS V13.01,2013-07-18 12:49:00,
2013-07-18 07:54:00,75.9,69.7,30.16,SSW,199,0.0,0.0,81,0.00,,SKC,0.00,VWS V13.01,2013-07-18 12:54:00,
2013-07-18 07:59:00,76.2,69.9,30.16,SSW,199,0.0,0.0,81,0.00,,SKC,0.00,VWS V13.01,2013-07-18 12:59:00,
2013-07-18 08:04:00,76.5,69.9,30.16,SSW,203,1.0,3.0,80,0.00,,SKC,0.00,VWS V13.01,2013-07-18 13:04:00,
2013-07-18 08:09:00,76.9,70.3,30.16,SSW,203,0.0,0.0,80,0.00,,SKC,0.00,VWS V13.01,2013-07-18 13:09:00,
2013-07-18 08:14:00,77.2,70.2,30.16,SSW,210,0.0,0.0,79,0.00,,SKC,0.00,VWS V13.01,2013-07-18 13:14:00,
2013-07-18 08:19:00,77.5,70.5,30.16,SSW,210,0.0,0.0,79,0.00,,SKC,0.00,VWS V13.01,2013-07-18 13:19:00,
2013-07-18 08:24:00,77.8,70.4,30.16,SW,226,0.0,4.0,78,0.00,,SKC,0.00,VWS V13.01,2013-07-18 13:24:00,
2013-07-18 08:29:00,78.1,70.7,30.16,SW,215,0.0,0.0,78,0.00,,SKC,0.00,VWS V13.01,2013-07-18 13:29:00,
2013-07-18 08:34:00,78.5,71.1,30.16,WSW,239,0.0,1.0,78,0.00,,SKC,0.00,VWS V13.01,2013-07-18 13:34:00,
2013-07-18 08:39:00,78.8,71.0,30.16,SW,222,0.0,0.0,77,0.00,,SKC,0.00,VWS V13.01,2013-07-18 13:39:00,
2013-07-18 08:44:00,79.1,70.9,30.16,WSW,238,4.0,7.0,76,0.00,,SKC,0.00,VWS V13.01,2013-07-18 13:44:00,
2013-07-18 08:49:00,79.3,71.1,30.16,West,262,4.0,7.0,76,0.00,,SKC,0.00,VWS V13.01,2013-07-18 13:49:00,
2013-07-18 08:54:00,79.6,71.0,30.16,SSW,199,0.0,0.0,75,0.00,,SKC,0.00,VWS V13.01,2013-07-18 13:54:00,
2013-07-18 08:59:00,79.9,71.3,30.16,SW,222,0.0,3.0,75,0.00,,SKC,0.00,VWS V13.01,2013-07-18 13:59:00,
2013-07-18 09:04:00,80.3,71.3,30.16,SW,224,5.0,5.0,74,0.00,,SKC,0.00,VWS V13.01,2013-07-18 14:04:00,
2013-07-18 09:09:00,80.5,71.5,30.16,SSW,212,0.0,0.0,74,0.00,,SKC,0.00,VWS V13.01,2013-07-18 14:09:00,
2013-07-18 09:14:00,80.8,71.3,30.16,SSW,210,0.0,4.0,73,0.00,,SKC,0.00,VWS V13.01,2013-07-18 14:14:00,
2013-07-18 09:19:00,81.1,71.6,30.16,WSW,249,0.0,4.0,73,0.00,,SKC,0.00,VWS V13.01,2013-07-18 14:19:00,
2013-07-18 09:24:00,81.4,71.9,30.16,South,187,0.0,0.0,73,0.00,,SKC,0.00,VWS V13.01,2013-07-18 14:24:00,
2013-07-18 09:29:00,81.7,72.2,30.16,WSW,243,0.0,4.0,73,0.00,,SKC,0.00,VWS V13.01,2013-07-18 14:29:00,
2013-07-18 09:34:00,82.0,72.1,30.16,SW,232,0.0,0.0,72,0.00,,SKC,0.00,VWS V13.01,2013-07-18 14:34:00,
2013-07-18 09:39:00,82.3,72.0,30.15,SSW,207,0.0,5.0,71,0.00,,SKC,0.00,VWS V13.01,2013-07-18 14:39:00,
2013-07-18 09:44:00,82.7,71.9,30.15,SSW,200,5.0,5.0,70,0.00,,SKC,0.00,VWS V13.01,2013-07-18 14:44:00,
2013-07-18 09:49:00,83.0,71.8,30.15,SSW,208,0.0,7.0,69,0.00,,SKC,0.00,VWS V13.01,2013-07-18 14:49:00,
2013-07-18 09:54:00,83.5,72.7,30.15,SW,229,7.0,7.0,70,0.00,,SKC,0.00,VWS V13.01,2013-07-18 14:54:00,
2013-07-18 09:59:00,83.6,71.5,30.15,WSW,253,0.0,9.0,67,0.00,,SKC,0.00,VWS V13.01,2013-07-18 14:59:00,
2013-07-18 10:04:00,83.9,71.8,30.14,WSW,237,3.0,14.0,67,0.00,,SKC,0.00,VWS V13.01,2013-07-18 15:04:00,
2013-07-18 10:09:00,84.3,71.3,30.14,SSW,212,10.0,13.0,65,0.00,,SKC,0.00,VWS V13.01,2013-07-18 15:09:00,
2013-07-18 10:14:00,84.3,71.7,30.15,West,260,8.0,11.0,66,0.00,,SKC,0.00,VWS V13.01,2013-07-18 15:14:00,
2013-07-18 10:19:00,84.5,71.4,30.15,WSW,241,6.0,13.0,65,0.00,,SKC,0.00,VWS V13.01,2013-07-18 15:19:00,
2013-07-18 10:24:00,84.7,71.6,30.15,SSW,195,4.0,10.0,65,0.00,,SKC,0.00,VWS V13.01,2013-07-18 15:24:00,
2013-07-18 10:29:00,85.2,72.1,30.14,SSW,205,4.0,8.0,65,0.00,,SKC,0.00,VWS V13.01,2013-07-18 15:29:00,
2013-07-18 10:34:00,85.5,72.4,30.15,SSW,210,7.0,11.0,65,0.00,,SKC,0.00,VWS V13.01,2013-07-18 15:34:00,
2013-07-18 10:39:00,85.6,72.5,30.14,SSW,212,5.0,6.0,65,0.00,,SKC,0.00,VWS V13.01,2013-07-18 15:39:00,
2013-07-18 10:44:00,85.8,71.8,30.15,SSW,207,1.0,6.0,63,0.00,,SKC,0.00,VWS V13.01,2013-07-18 15:44:00,
2013-07-18 10:49:00,86.4,71.8,30.14,SSW,198,3.0,10.0,62,0.00,,SKC,0.00,VWS V13.01,2013-07-18 15:49:00,
2013-07-18 10:54:00,86.6,70.6,30.14,West,260,10.0,12.0,59,0.00,,SKC,0.00,VWS V13.01,2013-07-18 15:54:00,
2013-07-18 10:59:00,86.0,71.0,30.14,West,261,4.0,6.0,61,0.00,,SKC,0.00,VWS V13.01,2013-07-18 15:59:00,
2013-07-18 11:04:00,86.2,70.2,30.14,West,280,5.0,13.0,59,0.00,,SKC,0.00,VWS V13.01,2013-07-18 16:04:00,
2013-07-18 11:09:00,86.2,70.7,30.13,SSW,194,0.0,14.0,60,0.00,,SKC,0.00,VWS V13.01,2013-07-18 16:09:00,
2013-07-18 11:14:00,86.4,70.4,30.13,SSW,212,11.0,11.0,59,0.00,,SKC,0.00,VWS V13.01,2013-07-18 16:14:00,
2013-07-18 11:19:00,87.0,70.9,30.13,SSW,213,6.0,14.0,59,0.00,,SKC,0.00,VWS V13.01,2013-07-18 16:19:00,
2013-07-18 11:24:00,87.5,70.4,30.14,SW,229,2.0,11.0,57,0.00,,SKC,0.00,VWS V13.01,2013-07-18 16:24:00,
2013-07-18 11:29:00,87.8,70.7,30.13,SW,235,6.0,6.0,57,0.00,,SKC,0.00,VWS V13.01,2013-07-18 16:29:00,
2013-07-18 11:34:00,87.7,70.1,30.13,WSW,253,0.0,13.0,56,0.00,,SKC,0.00,VWS V13.01,2013-07-18 16:34:00,
2013-07-18 11:39:00,88.5,71.3,30.13,South,178,5.0,7.0,57,0.00,,SKC,0.00,VWS V13.01,2013-07-18 16:39:00,
2013-07-18 11:44:00,89.2,72.0,30.13,South,173,12.0,16.0,57,0.00,,SKC,0.00,VWS V13.01,2013-07-18 16:44:00,
2013-07-18 11:49:00,88.8,70.6,30.13,West,259,3.0,14.0,55,0.00,,SKC,0.00,VWS V13.01,2013-07-18 16:49:00,
2013-07-18 11:54:00,88.2,71.1,30.12,SW,229,2.0,5.0,57,0.00,,SKC,0.00,VWS V13.01,2013-07-18 16:54:00,
2013-07-18 11:59:00,88.4,70.7,30.12,SW,224,3.0,13.0,56,0.00,,SKC,0.00,VWS V13.01,2013-07-18 16:59:00,
2013-07-18 12:04:00,88.8,70.6,30.12,SW,229,5.0,10.0,55,0.00,,SKC,0.00,VWS V13.01,2013-07-18 17:04:00,
2013-07-18 12:09:00,88.6,70.9,30.12,WSW,247,7.0,9.0,56,0.00,,SKC,0.00,VWS V13.01,2013-07-18 17:09:00,
2013-07-18 12:14:00,88.0,69.8,30.12,South,185,3.0,10.0,55,0.00,,SKC,0.00,VWS V13.01,2013-07-18 17:14:00,
2013-07-18 12:19:00,88.5,69.8,30.11,WSW,247,1.0,10.0,54,0.00,,SKC,0.00,VWS V13.01,2013-07-18 17:19:00,
2013-07-18 12:24:00,89.1,70.8,30.11,West,263,1.0,5.0,55,0.00,,SKC,0.00,VWS V13.01,2013-07-18 17:24:00,
2013-07-18 12:29:00,89.6,70.2,30.11,South,183,7.0,12.0,53,0.00,,SKC,0.00,VWS V13.01,2013-07-18 17:29:00,
2013-07-18 12:34:00,89.4,70.0,30.11,WSW,245,0.0,10.0,53,0.00,,SKC,0.00,VWS V13.01,2013-07-18 17:34:00,
2013-07-18 12:39:00,89.7,69.8,30.10,WSW,257,8.0,12.0,52,0.00,,SKC,0.00,VWS V13.01,2013-07-18 17:39:00,
2013-07-18 12:44:00,90.2,71.3,30.10,SSW,207,1.0,7.0,54,0.00,,SKC,0.00,VWS V13.01,2013-07-18 17:44:00,
2013-07-18 12:49:00,90.1,70.7,30.10,SW,216,3.0,5.0,53,0.00,,SKC,0.00,VWS V13.01,2013-07-18 17:49:00,
2013-07-18 12:54:00,90.4,71.5,30.10,WSW,254,1.0,5.0,54,0.00,,SKC,0.00,VWS V13.01,2013-07-18 17:54:00,
2013-07-18 12:59:00,90.2,70.2,30.10,WSW,241,2.0,8.0,52,0.00,,SKC,0.00,VWS V13.01,2013-07-18 17:59:00,
2013-07-18 13:04:00,89.9,69.4,30.10,SW,234,1.0,9.0,51,0.00,,SKC,0.00,VWS V13.01,2013-07-18 18:04:00,
2013-07-18 13:09:00,90.3,69.7,30.10,SSW,198,2.0,8.0,51,0.00,,SKC,0.00,VWS V13.01,2013-07-18 18:09:00,
2013-07-18 13:14:00,90.4,71.5,30.10,WSW,238,1.0,7.0,54,0.00,,SKC,0.00,VWS V13.01,2013-07-18 18:14:00,
2013-07-18 13:19:00,90.2,69.6,30.09,WSW,239,6.0,13.0,51,0.00,,SKC,0.00,VWS V13.01,2013-07-18 18:19:00,
2013-07-18 13:25:00,90.7,71.2,30.10,South,191,9.0,13.0,53,0.00,,SKC,0.00,VWS V13.01,2013-07-18 18:25:00,
2013-07-18 13:30:00,91.0,70.4,30.09,WNW,297,0.0,2.0,51,0.00,,SKC,0.00,VWS V13.01,2013-07-18 18:30:00,
2013-07-18 13:36:00,90.8,70.8,30.09,SW,233,1.0,7.0,52,0.00,,SKC,0.00,VWS V13.01,2013-07-18 18:36:00,
2013-07-18 13:41:00,91.6,71.5,30.09,SSE,163,1.0,13.0,52,0.00,,SKC,0.00,VWS V13.01,2013-07-18 18:41:00,
2013-07-18 13:46:00,91.3,70.1,30.08,SW,230,0.0,8.0,50,0.00,,SKC,0.00,VWS V13.01,2013-07-18 18:46:00,
2013-07-18 13:51:00,91.7,71.6,30.08,SSW,193,0.0,4.0,52,0.00,,SKC,0.00,VWS V13.01,2013-07-18 18:51:00,
2013-07-18 13:56:00,92.1,70.8,30.08,SSW,209,4.0,8.0,50,0.00,,SKC,0.00,VWS V13.01,2013-07-18 18:56:00,
2013-07-18 14:01:00,91.3,70.1,30.08,SSW,195,0.0,6.0,50,0.00,,SKC,0.00,VWS V13.01,2013-07-18 19:01:00,
2013-07-18 14:06:00,91.1,70.5,30.08,WSW,237,14.0,14.0,51,0.00,,SKC,0.00,VWS V13.01,2013-07-18 19:06:00,
2013-07-18 14:11:00,91.8,70.5,30.08,SSW,199,4.0,11.0,50,0.00,,SKC,0.00,VWS V13.01,2013-07-18 19:11:00,
2013-07-18 14:16:00,92.3,71.6,30.08,West,278,7.0,7.0,51,0.00,,SKC,0.00,VWS V13.01,2013-07-18 19:16:00,
2013-07-18 14:21:00,92.5,70.0,30.07,WSW,253,2.0,4.0,48,0.00,,SKC,0.00,VWS V13.01,2013-07-18 19:21:00,
2013-07-18 14:26:00,92.1,70.2,30.07,SW,233,7.0,16.0,49,0.00,,SKC,0.00,VWS V13.01,2013-07-18 19:26:00,
2013-07-18 14:31:00,91.9,70.6,30.07,South,185,2.0,9.0,50,0.00,,SKC,0.00,VWS V13.01,2013-07-18 19:31:00,
2013-07-18 14:36:00,93.1,70.5,30.07,WSW,251,2.0,11.0,48,0.00,,SKC,0.00,VWS V13.01,2013-07-18 19:36:00,
2013-07-18 14:41:00,93.3,71.3,30.07,West,259,4.0,8.0,49,0.00,,SKC,0.00,VWS V13.01,2013-07-18 19:41:00,
2013-07-18 14:46:00,93.0,69.8,30.07,South,169,4.0,20.0,47,0.00,,SKC,0.00,VWS V13.01,2013-07-18 19:46:00,
2013-07-18 14:51:00,92.3,71.0,30.06,SSW,206,0.0,4.0,50,0.00,,SKC,0.00,VWS V13.01,2013-07-18 19:51:00,
2013-07-18 14:56:00,92.6,70.7,30.06,West,264,1.0,6.0,49,0.00,,SKC,0.00,VWS V13.01,2013-07-18 19:56:00,
2013-07-18 15:02:00,92.7,70.8,30.06,West,264,11.0,11.0,49,0.00,,SKC,0.00,VWS V13.01,2013-07-18 20:02:00,
2013-07-18 15:07:00,91.9,70.6,30.06,WSW,241,0.0,7.0,50,0.00,,SKC,0.00,VWS V13.01,2013-07-18 20:07:00,
2013-07-18 15:12:00,92.1,70.2,30.06,South,174,7.0,10.0,49,0.00,,SKC,0.00,VWS V13.01,2013-07-18 20:12:00,
2013-07-18 15:17:00,92.6,71.8,30.05,West,264,0.0,7.0,51,0.00,,SKC,0.00,VWS V13.01,2013-07-18 20:17:00,
2013-07-18 15:22:00,93.3,70.7,30.05,South,189,1.0,11.0,48,0.00,,SKC,0.00,VWS V13.01,2013-07-18 20:22:00,
2013-07-18 15:27:00,93.4,70.8,30.05,WSW,237,1.0,5.0,48,0.00,,SKC,0.00,VWS V13.01,2013-07-18 20:27:00,
2013-07-18 15:32:00,94.0,70.1,30.05,SW,228,3.0,18.0,46,0.00,,SKC,0.00,VWS V13.01,2013-07-18 20:32:00,
2013-07-18 15:37:00,94.1,70.2,30.05,SSE,166,6.0,10.0,46,0.00,,SKC,0.00,VWS V13.01,2013-07-18 20:37:00,
2013-07-18 15:42:00,93.6,69.7,30.04,WSW,256,1.0,6.0,46,0.00,,SKC,0.00,VWS V13.01,2013-07-18 20:42:00,
2013-07-18 15:47:00,93.8,71.2,30.04,SW,234,16.0,16.0,48,0.00,,SKC,0.00,VWS V13.01,2013-07-18 20:47:00,
2013-07-18 15:52:00,93.5,70.3,30.04,SSW,194,4.0,13.0,47,0.00,,SKC,0.00,VWS V13.01,2013-07-18 20:52:00,
2013-07-18 15:57:00,93.8,69.9,30.04,WSW,237,4.0,14.0,46,0.00,,SKC,0.00,VWS V13.01,2013-07-18 20:57:00,
2013-07-18 16:02:00,93.6,69.1,30.04,SW,214,7.0,15.0,45,0.00,,SKC,0.00,VWS V13.01,2013-07-18 21:02:00,
2013-07-18 16:07:00,93.8,71.2,30.03,WNW,283,11.0,16.0,48,0.00,,SKC,0.00,VWS V13.01,2013-07-18 21:07:00,
2013-07-18 16:12:00,93.4,68.9,30.03,SW,226,3.0,11.0,45,0.00,,SKC,0.00,VWS V13.01,2013-07-18 21:12:00,
2013-07-18 16:17:00,93.3,68.8,30.03,SW,229,6.0,8.0,45,0.00,,SKC,0.00,VWS V13.01,2013-07-18 21:17:00,
2013-07-18 16:22:00,93.4,69.5,30.03,WSW,247,7.0,9.0,46,0.00,,SKC,0.00,VWS V13.01,2013-07-18 21:22:00,
2013-07-18 16:27:00,93.2,70.0,30.03,SW,221,22.0,22.0,47,0.00,,SKC,0.00,VWS V13.01,2013-07-18 21:27:00,
2013-07-18 16:32:00,93.3,69.4,30.03,SW,226,1.0,7.0,46,0.00,,SKC,0.00,VWS V13.01,2013-07-18 21:32:00,
2013-07-18 16:37:00,93.6,69.7,30.02,SSW,195,1.0,10.0,46,0.00,,SKC,0.00,VWS V13.01,2013-07-18 21:37:00,
2013-07-18 16:42:00,93.6,69.1,30.03,West,261,6.0,10.0,45,0.00,,SKC,0.00,VWS V13.01,2013-07-18 21:42:00,
2013-07-18 16:47:00,93.6,69.7,30.02,SW,231,5.0,21.0,46,0.00,,SKC,0.00,VWS V13.01,2013-07-18 21:47:00,
2013-07-18 16:52:00,93.4,68.9,30.02,SW,221,10.0,18.0,45,0.00,,SKC,0.00,VWS V13.01,2013-07-18 21:52:00,
2013-07-18 16:57:00,93.3,69.4,30.02,WSW,237,6.0,10.0,46,0.00,,SKC,0.00,VWS V13.01,2013-07-18 21:57:00,
2013-07-18 17:02:00,93.1,69.3,30.02,SSE,156,0.0,6.0,46,0.00,,SKC,0.00,VWS V13.01,2013-07-18 22:02:00,
2013-07-18 17:07:00,93.6,69.1,30.02,SW,228,11.0,19.0,45,0.00,,SKC,0.00,VWS V13.01,2013-07-18 22:07:00,
2013-07-18 17:12:00,93.3,69.4,30.02,WSW,240,5.0,5.0,46,0.00,,SKC,0.00,VWS V13.01,2013-07-18 22:12:00,
2013-07-18 17:17:00,93.8,69.9,30.02,WSW,243,6.0,9.0,46,0.00,,SKC,0.00,VWS V13.01,2013-07-18 22:17:00,
2013-07-18 17:22:00,93.6,69.7,30.01,SSE,165,1.0,5.0,46,0.00,,SKC,0.00,VWS V13.01,2013-07-18 22:22:00,
2013-07-18 17:27:00,94.1,69.5,30.01,SSW,205,6.0,11.0,45,0.00,,SKC,0.00,VWS V13.01,2013-07-18 22:27:00,
2013-07-18 17:32:00,93.7,69.8,30.01,WSW,238,6.0,6.0,46,0.00,,SKC,0.00,VWS V13.01,2013-07-18 22:32:00,
2013-07-18 17:37:00,93.6,68.4,30.01,South,178,2.0,11.0,44,0.00,,SKC,0.00,VWS V13.01,2013-07-18 22:37:00,
2013-07-18 17:42:00,93.6,69.7,30.01,WSW,251,3.0,13.0,46,0.00,,SKC,0.00,VWS V13.01,2013-07-18 22:42:00,
2013-07-18 17:47:00,93.6,69.7,30.00,SSW,208,4.0,7.0,46,0.00,,SKC,0.00,VWS V13.01,2013-07-18 22:47:00,
2013-07-18 17:52:00,94.0,70.1,30.00,SSW,205,0.0,5.0,46,0.00,,SKC,0.00,VWS V13.01,2013-07-18 22:52:00,
2013-07-18 17:57:00,94.2,69.6,30.00,SSE,159,0.0,7.0,45,0.00,,SKC,0.00,VWS V13.01,2013-07-18 22:57:00,
2013-07-18 18:02:00,93.9,70.6,30.00,SW,230,4.0,4.0,47,0.00,,SKC,0.00,VWS V13.01,2013-07-18 23:02:00,
2013-07-18 18:07:00,94.0,70.7,29.99,WSW,245,1.0,4.0,47,0.00,,SKC,0.00,VWS V13.01,2013-07-18 23:07:00,
2013-07-18 18:12:00,93.9,70.0,29.99,WSW,249,3.0,11.0,46,0.00,,SKC,0.00,VWS V13.01,2013-07-18 23:12:00,
2013-07-18 18:17:00,93.8,70.5,29.99,SW,230,2.0,11.0,47,0.00,,SKC,0.00,VWS V13.01,2013-07-18 23:17:00,
2013-07-18 18:22:00,93.8,70.5,29.99,SSW,206,2.0,6.0,47,0.00,,SKC,0.00,VWS V13.01,2013-07-18 23:22:00,
2013-07-18 18:27:00,93.7,69.8,29.99,WSW,241,2.0,8.0,46,0.00,,SKC,0.00,VWS V13.01,2013-07-18 23:27:00,
2013-07-18 18:32:00,93.7,70.4,29.99,SSW,203,1.0,6.0,47,0.00,,SKC,0.00,VWS V13.01,2013-07-18 23:32:00,
2013-07-18 18:37:00,93.7,69.8,29.99,SW,224,9.0,12.0,46,0.00,,SKC,0.00,VWS V13.01,2013-07-18 23:37:00,
2013-07-18 18:42:00,93.2,70.0,29.98,SW,218,0.0,5.0,47,0.00,,SKC,0.00,VWS V13.01,2013-07-18 23:42:00,
2013-07-18 18:47:00,93.2,69.4,29.98,SSW,211,2.0,11.0,46,0.00,,SKC,0.00,VWS V13.01,2013-07-18 23:47:00,
2013-07-18 18:52:00,93.3,70.7,29.98,West,268,6.0,7.0,48,0.00,,SKC,0.00,VWS V13.01,2013-07-18 23:52:00,
2013-07-18 18:57:00,92.8,69.0,29.98,WSW,248,0.0,7.0,46,0.00,,SKC,0.00,VWS V13.01,2013-07-18 23:57:00,
2013-07-18 19:03:00,92.8,69.6,29.98,SSW,205,8.0,10.0,47,0.00,,SKC,0.00,VWS V13.01,2013-07-19 00:03:00,
2013-07-18 19:08:00,92.6,68.8,29.98,SSW,209,0.0,11.0,46,0.00,,SKC,0.00,VWS V13.01,2013-07-19 00:08:00,
2013-07-18 19:13:00,92.5,70.0,29.98,WSW,240,7.0,7.0,48,0.00,,SKC,0.00,VWS V13.01,2013-07-19 00:13:00,
2013-07-18 19:18:00,92.4,69.3,29.98,SW,235,0.0,9.0,47,0.00,,SKC,0.00,VWS V13.01,2013-07-19 00:18:00,
2013-07-18 19:23:00,92.3,69.2,29.98,SW,224,0.0,3.0,47,0.00,,SKC,0.00,VWS V13.01,2013-07-19 00:23:00,
2013-07-18 19:28:00,92.5,69.3,29.98,WSW,253,4.0,4.0,47,0.00,,SKC,0.00,VWS V13.01,2013-07-19 00:28:00,
2013-07-18 19:33:00,92.6,70.1,29.98,SW,214,1.0,6.0,48,0.00,,SKC,0.00,VWS V13.01,2013-07-19 00:33:00,
2013-07-18 19:38:00,92.5,70.0,29.98,SW,224,1.0,1.0,48,0.00,,SKC,0.00,VWS V13.01,2013-07-19 00:38:00,
2013-07-18 19:44:00,92.3,70.4,29.98,SW,224,2.0,4.0,49,0.00,,SKC,0.00,VWS V13.01,2013-07-19 00:44:00,
2013-07-18 19:49:00,91.9,70.0,29.98,SSW,209,0.0,1.0,49,0.00,,SKC,0.00,VWS V13.01,2013-07-19 00:49:00,
2013-07-18 19:54:00,91.5,69.7,29.98,South,188,5.0,5.0,49,0.00,,SKC,0.00,VWS V13.01,2013-07-19 00:54:00,
2013-07-18 19:59:00,91.2,70.0,29.98,SW,218,0.0,1.0,50,0.00,,SKC,0.00,VWS V13.01,2013-07-19 00:59:00,
2013-07-18 20:04:00,91.1,70.5,29.98,SSW,205,0.0,0.0,51,0.00,,SKC,0.00,VWS V13.01,2013-07-19 01:04:00,
2013-07-18 20:09:00,90.8,69.6,29.98,SSW,210,4.0,4.0,50,0.00,,SKC,0.00,VWS V13.01,2013-07-19 01:09:00,
2013-07-18 20:14:00,90.4,69.8,29.98,SW,215,0.0,2.0,51,0.00,,SKC,0.00,VWS V13.01,2013-07-19 01:14:00,
2013-07-18 20:19:00,89.9,69.4,29.97,WSW,245,0.0,0.0,51,0.00,,SKC,0.00,VWS V13.01,2013-07-19 01:19:00,
2013-07-18 20:24:00,89.7,69.8,29.98,SW,219,0.0,1.0,52,0.00,,SKC,0.00,VWS V13.01,2013-07-19 01:24:00,
2013-07-18 20:29:00,89.3,69.4,29.98,SSW,210,0.0,2.0,52,0.00,,SKC,0.00,VWS V13.01,2013-07-19 01:29:00,
2013-07-18 20:34:00,89.0,69.7,29.98,SSW,210,0.0,2.0,53,0.00,,SKC,0.00,VWS V13.01,2013-07-19 01:34:00,
2013-07-18 20:39:00,88.7,69.4,29.98,SSW,210,0.0,0.0,53,0.00,,SKC,0.00,VWS V13.01,2013-07-19 01:39:00,
2013-07-18 20:44:00,88.5,69.8,29.97,SSW,210,0.0,0.0,54,0.00,,SKC,0.00,VWS V13.01,2013-07-19 01:44:00,
2013-07-18 20:49:00,88.1,69.4,29.98,SSW,210,0.0,0.0,54,0.00,,SKC,0.00,VWS V13.01,2013-07-19 01:49:00,
2013-07-18 20:54:00,87.8,69.6,29.98,SSW,210,0.0,0.0,55,0.00,,SKC,0.00,VWS V13.01,2013-07-19 01:54:00,
2013-07-18 20:59:00,87.5,69.4,29.98,SSW,210,0.0,0.0,55,0.00,,SKC,0.00,VWS V13.01,2013-07-19 01:59:00,
2013-07-18 21:04:00,87.1,69.5,29.98,SSW,210,0.0,0.0,56,0.00,,SKC,0.00,VWS V13.01,2013-07-19 02:04:00,
2013-07-18 21:09:00,86.8,69.2,29.98,SSW,210,0.0,0.0,56,0.00,,SKC,0.00,VWS V13.01,2013-07-19 02:09:00,
2013-07-18 21:14:00,86.6,69.6,29.98,SSW,210,0.0,0.0,57,0.00,,SKC,0.00,VWS V13.01,2013-07-19 02:14:00,
2013-07-18 21:19:00,86.2,69.2,29.98,SSW,210,0.0,0.0,57,0.00,,SKC,0.00,VWS V13.01,2013-07-19 02:19:00,
2013-07-18 21:24:00,85.9,69.4,29.98,SSW,210,0.0,0.0,58,0.00,,SKC,0.00,VWS V13.01,2013-07-19 02:24:00,
2013-07-18 21:29:00,85.6,69.1,29.98,SSW,210,0.0,0.0,58,0.00,,SKC,0.00,VWS V13.01,2013-07-19 02:29:00,
2013-07-18 21:34:00,85.4,69.4,29.98,SSW,210,0.0,0.0,59,0.00,,SKC,0.00,VWS V13.01,2013-07-19 02:34:00,
2013-07-18 21:39:00,85.1,69.7,29.98,SSW,210,0.0,0.0,60,0.00,,SKC,0.00,VWS V13.01,2013-07-19 02:39:00,
2013-07-18 21:44:00,84.8,69.9,29.99,SSW,210,0.0,0.0,61,0.00,,SKC,0.00,VWS V13.01,2013-07-19 02:44:00,
2013-07-18 21:49:00,84.6,69.7,29.99,SSW,210,0.0,0.0,61,0.00,,SKC,0.00,VWS V13.01,2013-07-19 02:49:00,
2013-07-18 21:54:00,84.3,69.9,29.99,SSW,210,0.0,0.0,62,0.00,,SKC,0.00,VWS V13.01,2013-07-19 02:54:00,
2013-07-18 21:59:00,84.1,69.7,29.99,SSW,210,0.0,0.0,62,0.00,,SKC,0.00,VWS V13.01,2013-07-19 02:59:00,
2013-07-18 22:04:00,83.8,69.9,29.99,SSW,210,0.0,0.0,63,0.00,,SKC,0.00,VWS V13.01,2013-07-19 03:04:00,
2013-07-18 22:09:00,83.4,69.5,29.99,SSW,210,0.0,0.0,63,0.00,,SKC,0.00,VWS V13.01,2013-07-19 03:09:00,
2013-07-18 22:14:00,83.2,69.8,29.99,SSW,210,0.0,0.0,64,0.00,,SKC,0.00,VWS V13.01,2013-07-19 03:14:00,
2013-07-18 22:19:00,82.9,69.5,29.99,SSW,210,0.0,0.0,64,0.00,,SKC,0.00,VWS V13.01,2013-07-19 03:19:00,
2013-07-18 22:24:00,82.7,69.8,29.99,SSW,210,0.0,0.0,65,0.00,,SKC,0.00,VWS V13.01,2013-07-19 03:24:00,
2013-07-18 22:29:00,82.5,69.6,29.99,SW,226,0.0,1.0,65,0.00,,SKC,0.00,VWS V13.01,2013-07-19 03:29:00,
2013-07-18 22:34:00,82.2,69.3,29.99,SSW,192,0.0,3.0,65,0.00,,SKC,0.00,VWS V13.01,2013-07-19 03:34:00,
2013-07-18 22:39:00,82.1,69.6,29.99,South,190,0.0,0.0,66,0.00,,SKC,0.00,VWS V13.01,2013-07-19 03:39:00,
2013-07-18 22:44:00,81.9,69.4,29.99,SSW,198,0.0,1.0,66,0.00,,SKC,0.00,VWS V13.01,2013-07-19 03:44:00,
2013-07-18 22:49:00,81.7,69.2,29.99,SSW,211,3.0,3.0,66,0.00,,SKC,0.00,VWS V13.01,2013-07-19 03:49:00,
2013-07-18 22:54:00,81.5,69.5,30.00,SW,225,0.0,1.0,67,0.00,,SKC,0.00,VWS V13.01,2013-07-19 03:54:00,
2013-07-18 22:59:00,81.4,69.4,30.00,SW,221,0.0,4.0,67,0.00,,SKC,0.00,VWS V13.01,2013-07-19 03:59:00,
2013-07-18 23:01:00,81.3,69.3,29.99,SW,221,0.0,0.0,67,0.00,,SKC,0.00,VWS V13.01,2013-07-19 04:01:00,
2013-07-18 23:02:00,81.2,69.2,29.99,WSW,247,1.0,1.0,67,0.00,,SKC,0.00,VWS V13.01,2013-07-19 04:02:00,
2013-07-18 23:03:00,81.2,69.2,30.00,WSW,246,0.0,1.0,67,0.00,,SKC,0.00,VWS V13.01,2013-07-19 04:03:00,
2013-07-18 23:06:00,81.2,69.2,30.00,SW,233,0.0,0.0,67,0.00,,SKC,0.00,VWS V13.01,2013-07-19 04:06:00,
2013-07-18 23:07:00,81.1,69.1,30.00,SW,233,0.0,0.0,67,0.00,,SKC,0.00,VWS V13.01,2013-07-19 04:07:00,
2013-07-18 23:12:00,81.0,69.0,29.99,SW,233,0.0,0.0,67,0.00,,SKC,0.00,VWS V13.01,2013-07-19 04:12:00,
2013-07-18 23:17:00,80.9,68.9,29.99,SW,233,0.0,2.0,67,0.00,,SKC,0.00,VWS V13.01,2013-07-19 04:17:00,
2013-07-18 23:22:00,80.7,69.2,29.99,SW,233,0.0,0.0,68,0.00,,SKC,0.00,VWS V13.01,2013-07-19 04:22:00,
2013-07-18 23:27:00,80.7,69.2,29.99,SW,232,0.0,5.0,68,0.00,,SKC,0.00,VWS V13.01,2013-07-19 04:27:00,
2013-07-18 23:32:00,80.6,69.1,29.99,SW,234,0.0,0.0,68,0.00,,SKC,0.00,VWS V13.01,2013-07-19 04:32:00,
2013-07-18 23:37:00,80.4,68.9,29.99,SW,234,0.0,0.0,68,0.00,,SKC,0.00,VWS V13.01,2013-07-19 04:37:00,
2013-07-18 23:42:00,80.2,68.7,29.99,SW,215,4.0,5.0,68,0.00,,SKC,0.00,VWS V13.01,2013-07-19 04:42:00,
2013-07-18 23:47:00,80.2,68.7,29.99,SW,215,0.0,0.0,68,0.00,,SKC,0.00,VWS V13.01,2013-07-19 04:47:00,
2013-07-18 23:52:00,80.0,68.5,29.99,SW,235,0.0,0.0,68,0.00,,SKC,0.00,VWS V13.01,2013-07-19 04:52:00,
2013-07-18 23:57:00,80.0,68.1,29.99,South,191,0.0,0.0,67,0.00,,SKC,0.00,VWS V13.01,2013-07-19 04:57:00,